Temp
7 7 7 7 7 7 7 7 7 7 7 7 6 6 7 7 8 10 11 12 12 11 11 13 14 14 15 17 17 18 18 18 19 19 19 19 20 21 21 21 21 21 20 20 20 21 22 23 24 25 25 27 27 23 21 22 25 29 31 32 33 32 30 25 23 27 30 32 34 35 35 35 33 33 34 33 31 29 28 27 26 25 23 24 24 22 26
7 7 7 7 7 7 7 7 7 7 6 6 6 6 7 7 8 9 10 12 12 11 11 12 13 14 15 16 16 17 18 18 18 17 17 18 19 19 20 20 20 19 19 19 19 19 20 21 21 22 22 23 23 20 20 21 23 25 26 28 29 29 28 26 23 23 25 27 28 29 31 32 32 33 34 34 33 32 31 30 28 25 23 24 24 22 26
7 7 7 7 7 7 7 7 7 7 6 6 6 6 7 7 8 9 10 12 13 12 12 12 12 12 13 13 13 15 16 16 16 16 16 17 18 18 18 19 19 19 18 18 18 18 18 18 19 19 19 19 20 20 19 21 23 24 24 25 25 27 29 27 23 22 22 22 23 25 27 30 32 33 34 34 34 32 29 27 25 23 23 24 23 23 27
7 7 7 7 7 7 7 7 7 7 6 6 6 6 6 7 7 9 10 12 12 12 12 12 11 11 11 11 12 13 14 15 16 16 16 17 18 18 18 19 19 18 17 17 17 17 18 17 18 18 17 17 19 19 19 20 22 23 23 24 25 27 29 29 25 24 24 23 25 29 31 29 28 30 32 33 34 34 31 26 23 24 24 23 24 25 27
7 7 7 7 7 7 7 7 7 7 6 6 6 6 7 6 7 8 9 9 10 10 11 11 10 11 11 11 12 13 13 14 15 16 16 17 18 17 17 18 18 16 16 16 16 16 16 17 17 17 16 17 18 18 19 20 21 22 22 23 24 24 25 27 28 27 28 29 30 33 33 30 28 30 30 32 34 34 30 26 25 27 24 22 26 29 26
7 7 7 7 7 7 7 7 7 7 6 6 6 6 7 7 7 9 9 8 9 9 9 10 10 10 11 11 12 12 13 13 14 15 16 16 17 17 17 17 17 16 15 15 15 15 15 16 16 16 16 16 17 17 18 20 20 20 20 22 24 23 22 26 27 27 30 32 32 33 33 32 32 32 31 31 33 32 29 27 29 30 25 23 28 30 28
7 7 7 7 7 7 7 7 7 6 6 6 6 6 7 8 7 9 9 8 8 8 8 9 10 10 11 11 12 12 12 13 14 14 14 14 15 16 15 16 16 15 15 15 14 14 15 15 15 16 15 15 16 16 17 19 20 19 19 21 23 22 23 25 25 25 29 32 32 33 33 31 31 32 32 33 32 32 31 31 32 32 29 29 32 31 31
7 7 7 7 7 7 7 7 7 6 6 6 6 6 7 7 7 7 8 7 7 8 9 9 9 9 10 10 11 12 12 12 13 14 14 13 14 15 15 15 15 15 15 14 14 14 15 15 15 16 15 15 16 16 16 17 18 18 19 20 22 22 22 24 24 23 25 30 32 32 33 31 30 30 33 33 32 32 32 32 33 31 30 31 32 30 31
7 7 7 7 7 7 7 7 6 6 6 6 6 6 7 7 7 7 6 6 8 8 8 9 8 8 9 10 10 11 11 11 11 12 14 14 13 14 14 14 15 15 15 14 14 15 15 15 16 16 16 15 16 16 16 17 17 17 19 20 21 22 22 23 23 21 23 28 30 31 32 31 28 28 31 32 31 31 31 32 33 31 30 30 28 27 29
7 7 7 7 7 7 7 7 6 6 6 6 6 7 7 7 7 7 6 6 8 8 8 8 8 9 10 10 10 10 10 10 10 11 13 14 14 14 13 13 13 14 14 14 15 15 16 16 16 16 16 16 17 17 17 17 17 17 18 19 20 22 22 22 22 21 21 25 28 30 30 27 24 27 30 32 32 32 32 33 34 34 33 31 28 28 32
7 7 7 7 7 7 7 7 7 6 6 6 6 6 7 6 6 6 6 6 8 8 8 8 8 9 10 10 10 11 10 10 10 10 11 13 14 14 14 13 13 13 14 15 16 16 16 16 16 16 17 17 17 17 18 18 18 18 19 20 21 22 22 22 22 22 21 23 26 28 25 22 24 30 34 34 33 33 33 32 34 35 34 33 32 33 35
7 7 7 7 7 7 7 7 6 6 6 6 6 6 6 6 6 6 6 6 7 8 8 8 8 9 10 10 10 11 10 10 10 11 11 13 14 13 14 14 13 14 15 16 16 16 16 16 15 16 16 17 17 18 18 18 19 20 21 21 21 22 22 22 23 22 22 23 24 23 22 24 29 34 35 34 34 35 34 33 33 34 34 34 34 33 33
7 7 7 7 7 7 7 7 6 6 6 6 6 6 6 6 6 6 6 6 7 7 7 8 8 9 9 10 10 10 10 11 12 12 12 13 13 13 14 14 14 15 16 16 16 15 15 14 14 14 15 17 17 18 19 19 20 21 22 22 22 23 23 23 23 23 23 23 22 22 24 28 33 34 34 34 34 34 32 29 30 32 32 33 33 32 32
7 7 7 7 7 7 7 7 7 6 6 6 6 6 6 6 6 6 6 6 6 8 8 7 8 9 9 10 10 10 10 11 12 12 12 12 13 13 14 14 15 15 16 16 15 15 14 13 13 13 14 16 17 19 20 21 21 21 22 23 24 24 23 23 22 23 23 22 21 23 25 27 30 32 33 33 33 34 32 28 28 30 30 30 31 31 32
7 7 7 7 7 7 7 7 7 6 6 6 6 6 6 6 6 6 6 6 6 7 7 7 8 9 9 9 9 9 10 10 10 11 11 12 12 13 14 14 15 15 16 15 14 14 14 13 12 12 13 15 16 18 20 21 22 23 24 24 24 24 24 24 23 22 23 22 22 23 23 23 27 30 32 33 33 33 33 29 27 29 29 28 29 30 30
7 7 7 7 7 7 7 7 7 6 6 6 6 6 6 6 6 6 6 6 6 7 8 8 8 8 8 8 9 9 9 9 10 10 10 11 11 12 13 14 15 14 14 14 14 13 13 12 12 12 13 14 15 17 18 20 21 23 24 23 23 23 24 25 23 22 22 21 21 22 22 23 25 28 30 32 32 33 32 27 25 28 29 27 28 28 28
7 7 7 7 7 7 6 6 7 7 6 6 6 6 6 6 6 6 6 6 6 7 8 9 8 8 8 8 8 9 9 10 10 10 9 10 11 11 12 13 14 14 13 13 13 12 11 11 12 12 12 14 15 16 17 18 19 20 22 22 22 22 22 24 23 21 21 21 21 22 23 22 22 23 24 26 30 34 31 24 23 27 29 27 27 27 27
7 7 7 7 7 7 7 6 6 6 6 6 6 6 6 6 6 6 6 6 6 6 8 9 8 7 8 8 8 9 10 10 10 9 9 10 10 11 12 12 12 13 13 12 12 12 11 11 12 12 12 14 16 15 16 17 18 19 20 20 20 20 21 22 21 20 20 21 21 22 22 21 21 21 21 23 29 31 26 22 25 28 27 26 26 26 26
7 7 7 7 7 7 7 7 7 6 6 6 6 6 6 6 6 6 6 6 6 6 8 9 9 8 9 9 9 9 10 10 10 9 9 9 11 12 12 11 11 12 12 10 10 11 11 11 13 12 12 14 15 15 15 16 17 18 19 20 19 19 20 20 20 20 20 20 21 21 21 21 21 20 21 25 28 27 24 24 27 26 25 26 26 25 25
7 7 7 7 7 7 7 7 7 6 6 6 6 6 6 7 6 6 6 6 6 6 7 8 8 8 9 9 9 9 10 10 10 10 9 9 11 11 11 10 10 11 11 10 10 11 10 11 12 13 12 13 14 15 15 16 17 17 18 19 19 18 19 20 19 19 19 19 20 20 20 21 21 20 22 24 24 24 25 25 25 25 24 24 24 24 24
7 7 7 7 7 7 7 7 7 6 6 6 6 6 6 7 7 6 6 6 6 6 7 8 9 9 9 9 9 9 9 9 10 10 9 10 11 11 10 10 11 11 11 10 10 10 10 10 11 11 12 13 13 14 15 15 17 17 17 18 18 18 18 19 18 19 20 19 19 19 19 20 20 19 20 20 21 23 25 24 23 24 23 23 22 22 22
7 7 7 7 7 7 7 7 6 6 6 6 6 6 6 6 7 7 6 6 6 6 7 8 8 8 8 9 9 9 9 9 10 10 10 10 11 11 11 11 11 12 11 10 10 11 10 10 10 10 11 12 13 13 14 15 16 16 16 17 18 18 18 18 18 19 19 19 19 20 20 19 19 19 19 20 21 22 23 22 22 22 22 22 22 21 21
7 7 7 7 7 7 7 7 7 6 6 6 6 6 6 6 7 6 6 6 6 6 7 7 7 7 8 9 9 10 10 10 10 10 10 10 10 10 11 11 11 12 11 10 11 11 11 10 10 10 11 11 12 13 14 14 15 15 15 16 17 17 17 18 18 18 19 19 19 19 19 19 19 19 19 20 21 21 20 21 21 21 21 21 21 20 21
7 7 7 7 7 7 7 7 7 6 7 6 6 6 6 6 6 6 6 6 6 6 7 7 7 8 9 10 11 11 11 11 11 11 11 10 10 10 11 12 12 13 12 11 12 12 11 11 11 10 10 12 12 12 13 14 14 15 15 16 16 17 17 17 18 18 19 19 18 18 19 18 18 18 18 19 20 20 20 20 19 20 20 20 20 20 20
6 6 6 7 7 7 7 7 7 7 7 6 6 6 6 6 7 6 6 6 6 6 7 7 8 9 10 11 11 12 12 12 12 12 12 11 11 11 11 13 13 13 13 13 12 11 11 11 11 10 10 11 12 12 13 14 14 14 15 15 16 17 17 17 18 18 19 20 18 18 18 19 18 18 18 18 18 19 20 19 19 19 19 19 19 19 19
6 6 6 6 7 7 7 7 7 7 7 6 6 6 6 6 7 6 6 6 6 6 7 7 8 10 10 10 11 11 11 12 12 12 12 12 13 12 12 13 13 14 13 12 11 11 12 11 11 10 10 11 12 12 12 13 13 13 14 15 16 17 17 17 18 17 18 19 18 17 19 19 18 17 17 18 18 18 19 19 19 18 18 18 18 18 18
6 6 6 6 6 6 6 6 7 7 6 6 6 6 6 6 7 6 6 6 6 7 7 7 8 9 10 10 10 11 11 12 12 12 12 13 13 14 14 13 13 13 13 12 12 12 12 12 12 11 11 12 13 12 12 13 13 13 13 15 16 16 16 17 17 18 18 18 17 17 18 18 17 17 17 17 18 18 18 18 18 18 18 18 17 17 18
7 7 6 6 6 6 6 6 6 6 6 6 6 6 6 7 8 8 7 6 7 7 7 7 7 8 8 9 10 11 12 12 13 13 13 13 14 14 14 14 13 13 13 13 12 13 13 12 12 12 13 12 12 12 13 13 13 13 14 14 15 16 16 16 17 18 18 18 17 17 17 17 17 17 17 17 18 18 18 17 17 18 18 17 17 17 17
7 7 7 7 7 6 6 6 6 6 6 6 6 6 7 8 9 8 8 7 7 7 7 7 7 8 8 10 11 11 12 12 13 13 13 14 14 14 14 14 14 14 13 13 13 13 13 13 13 13 13 13 12 13 13 13 13 15 15 15 15 16 16 16 16 16 17 17 17 17 17 17 17 17 17 17 18 18 17 17 17 17 17 17 17 17 17
7 7 7 7 7 6 6 6 6 6 6 6 6 6 6 8 9 8 8 8 7 7 7 6 7 8 9 10 10 11 12 13 13 13 13 13 14 14 15 14 14 14 14 14 14 14 13 13 13 13 13 13 13 13 13 13 14 15 15 15 15 16 16 16 15 15 16 16 16 16 17 17 17 17 17 17 17 17 17 17 17 17 17 17 16 17 17
7 7 7 7 7 7 7 6 6 6 6 6 6 6 6 8 8 8 8 8 7 7 7 6 7 8 9 10 11 12 13 13 14 13 13 13 14 14 15 15 15 14 14 14 14 14 14 13 13 13 13 13 13 12 13 13 14 15 15 15 15 15 15 15 15 15 15 15 15 16 17 17 17 17 17 16 16 17 17 17 17 17 17 16 16 16 16
7 7 7 7 7 7 6 6 6 6 6 6 6 6 7 8 8 8 8 7 7 6 6 6 7 7 8 10 12 13 13 14 14 13 13 13 14 14 15 15 15 15 15 14 14 14 13 13 13 13 13 13 12 12 12 13 13 15 15 15 15 15 15 15 15 15 15 15 16 16 16 16 16 17 16 16 16 16 16 17 17 17 16 16 16 16 16
8 8 8 8 8 8 7 7 7 6 6 7 6 6 8 8 8 9 8 7 7 7 7 7 7 8 8 10 11 12 13 12 12 12 13 13 13 14 14 15 16 16 15 14 14 13 13 12 12 13 13 12 12 12 13 13 14 15 15 15 15 15 15 15 15 15 15 15 16 16 16 16 16 16 16 16 16 16 16 17 17 16 16 16 16 16 16
10 10 10 9 9 9 8 8 8 7 7 6 6 8 9 9 9 9 9 7 7 7 7 7 7 7 9 10 10 12 12 12 11 11 12 12 13 13 14 14 15 15 14 14 13 13 12 12 12 12 12 12 12 12 13 14 15 15 15 15 15 15 15 15 15 14 15 15 16 16 16 16 16 16 16 16 16 16 16 16 16 16 16 16 16 16 16
11 11 11 11 10 10 10 9 8 7 7 6 7 9 10 10 9 10 9 8 8 7 7 8 8 8 8 9 9 11 12 12 11 11 12 12 13 13 13 14 14 14 13 13 13 13 12 12 12 12 12 13 13 13 13 14 14 14 14 14 14 14 15 15 14 14 15 15 15 16 16 16 16 16 16 16 16 16 16 16 16 16 16 16 16 17 16
12 11 11 12 11 11 10 9 8 7 7 8 9 10 10 9 9 9 9 9 8 8 8 8 8 8 8 8 9 11 12 11 11 11 11 12 12 12 13 14 13 12 12 13 12 12 12 12 12 12 12 13 13 13 14 14 14 14 14 14 14 14 14 14 14 14 15 15 15 15 16 16 16 16 16 16 16 16 16 16 16 16 16 17 16 17 17
12 12 12 12 11 10 9 9 8 8 9 10 10 10 9 9 8 8 8 8 8 8 8 8 8 8 9 9 9 11 11 11 11 11 11 11 12 12 12 13 13 12 12 12 12 12 12 12 12 12 12 12 13 13 14 14 14 14 14 14 14 14 14 14 15 15 15 15 15 15 15 15 15 16 16 16 16 17 17 17 17 17 17 17 17 17 17
12 12 11 11 11 10 10 10 10 10 10 10 10 9 9 8 8 8 8 8 8 8 8 7 7 8 8 8 9 10 11 11 11 11 11 12 12 12 12 12 12 12 12 11 12 12 12 12 12 12 12 13 13 13 13 13 14 13 14 14 14 14 14 14 15 15 15 15 15 15 15 15 15 15 16 16 16 16 16 16 17 17 17 17 17 17 17
11 11 11 10 10 10 11 11 10 10 9 9 9 9 9 8 8 8 9 8 8 8 8 8 8 8 8 8 9 10 11 10 10 10 11 12 12 11 11 11 12 11 11 11 12 12 12 11 12 12 12 13 13 13 13 13 13 13 14 14 14 14 15 14 15 15 15 15 15 15 15 15 15 15 16 16 16 16 16 16 17 17 17 17 17 17 17
10 10 9 10 10 10 11 11 10 9 9 9 9 9 9 9 9 9 9 9 8 9 9 9 9 9 9 8 9 10 11 10 10 11 11 11 12 12 11 11 11 11 10 10 11 12 11 11 12 12 12 13 13 13 13 14 13 14 14 14 14 15 15 15 15 15 15 15 15 15 15 16 16 16 16 16 16 16 16 16 16 17 17 17 17 17 17
9 9 9 9 9 9 9 10 10 9 9 10 10 9 9 10 10 10 9 9 9 10 10 9 9 10 10 9 9 10 11 11 11 11 11 11 12 11 11 10 11 11 10 10 11 12 12 11 11 11 12 13 13 13 13 14 14 14 14 14 14 15 15 15 15 15 16 16 16 15 16 16 17 17 17 16 16 16 16 16 16 17 17 17 17 17 17
10 9 8 8 8 8 9 10 10 10 10 10 10 10 10 11 11 11 10 10 11 11 11 10 10 11 11 11 10 11 11 11 12 12 11 11 12 12 10 10 10 11 11 11 12 12 11 11 11 11 12 13 13 13 13 13 13 14 14 13 13 14 14 15 15 15 16 16 16 16 16 16 17 17 17 16 16 17 16 16 16 16 16 16 17 17 17
12 10 9 8 8 9 10 10 10 10 10 9 10 10 11 11 12 12 11 11 12 12 12 11 11 12 12 11 11 12 12 12 12 12 11 11 12 11 10 9 10 11 11 12 12 11 11 11 11 12 13 13 13 13 13 13 13 13 13 13 13 13 14 15 15 15 16 16 16 16 16 16 17 17 17 17 17 17 17 17 17 17 17 17 17 17 17
12 11 10 9 10 10 11 11 11 11 10 9 9 10 10 11 11 12 12 12 12 12 12 12 12 12 12 12 12 12 12 12 12 12 12 12 11 11 10 10 11 12 12 11 11 11 12 12 12 12 13 13 13 13 13 13 13 13 13 13 13 13 14 14 15 16 16 16 16 16 16 16 16 16 17 17 17 17 17 17 17 17 17 17 17 17 17
12 12 11 12 12 12 12 12 12 11 11 11 10 10 10 11 12 12 12 12 12 12 12 12 12 12 13 13 12 12 12 13 12 12 13 13 12 11 11 12 12 12 12 11 11 11 12 12 12 12 12 12 13 13 13 13 13 13 13 13 14 14 14 14 14 15 16 16 16 16 16 16 16 17 17 16 17 17 17 17 17 17 17 17 17 16 17
12 13 12 12 13 12 12 12 12 12 12 12 12 11 11 11 12 12 12 13 13 12 12 13 12 12 13 13 13 13 13 13 13 13 14 13 12 12 12 13 13 12 12 11 12 12 12 12 12 12 12 12 13 13 13 13 13 13 13 13 13 14 14 14 14 15 16 16 17 17 17 16 16 17 17 17 17 17 17 17 17 17 17 16 16 16 17
13 13 13 13 13 12 12 13 13 12 12 12 12 12 12 12 12 12 13 13 13 13 13 13 13 13 13 13 13 14 14 14 14 14 14 13 13 13 13 13 12 11 12 12 12 13 13 13 12 12 12 13 13 13 13 13 13 13 13 13 14 15 15 16 16 17 17 17 17 17 17 16 16 16 17 17 17 17 18 18 18 18 17 17 17 17 17
13 13 13 13 13 12 13 14 13 13 13 13 13 13 13 12 13 13 14 13 13 13 13 14 14 14 14 14 14 14 15 15 14 14 14 14 13 13 13 12 11 11 12 12 13 13 13 13 12 12 13 13 13 13 13 14 14 14 14 15 16 16 17 17 17 17 17 17 17 17 17 16 16 16 16 16 16 17 17 18 18 18 18 18 17 17 17
13 13 13 13 12 12 14 15 14 14 14 15 14 14 14 14 14 14 14 14 14 14 15 15 15 15 15 15 15 15 14 14 14 14 14 14 13 13 12 12 12 12 12 13 13 13 13 13 13 13 13 13 13 13 14 14 15 15 15 16 16 16 16 17 17 17 16 16 16 16 16 16 16 16 16 16 16 16 17 17 18 18 18 18 18 17 17
14 14 15 15 14 14 15 16 15 14 14 14 14 14 14 14 14 15 14 14 15 16 16 16 16 15 15 15 15 14 14 14 14 13 13 13 13 12 12 12 12 13 13 13 13 13 12 12 13 13 13 13 14 14 14 14 15 15 15 15 16 16 16 16 16 16 16 16 16 16 16 16 16 16 16 16 16 17 17 17 17 17 17 18 18 17 17
15 16 17 17 16 15 16 15 14 14 13 13 14 14 14 14 14 14 14 14 15 15 15 15 15 15 14 13 13 13 13 13 13 13 12 12 12 12 11 12 12 13 13 13 13 12 12 12 13 13 13 13 14 14 14 14 15 15 14 15 15 15 15 16 16 16 16 16 16 15 15 15 15 16 16 16 16 16 16 16 16 17 17 17 17 17 17
15 16 17 17 17 16 15 15 14 14 14 14 14 14 14 14 14 14 14 14 15 15 14 14 14 14 13 13 13 13 13 13 12 12 12 12 12 12 12 12 13 13 12 12 12 12 12 12 13 13 13 13 13 14 14 14 15 15 14 14 14 14 15 15 15 15 15 15 15 14 15 15 15 15 16 15 15 15 15 15 16 17 17 17 17 17 17
Height
825 823 821 819 817 815 813 811 810 808 806 803 802 801 799 799 790 770 764 768 765 765 766 758 755 754 748 744 740 737 737 737 735 733 731 731 727 723 722 721 721 723 723 721 721 716 707 700 694 691 686 679 679 685 685 680 672 662 661 656 648 653 666 680 685 676 664 656 648 645 644 647 657 660 659 667 675 678 685 691 692 694 696 695 705 709 684
824 822 820 817 816 814 811 810 809 808 807 805 804 802 799 798 788 772 768 769 766 770 771 763 759 755 748 747 745 740 738 738 738 740 739 736 733 730 727 725 724 726 726 724 725 724 718 710 702 701 700 690 685 689 689 686 683 679 678 672 663 661 663 672 688 692 685 676 670 664 656 654 658 657 654 656 661 669 676 677 684 693 692 692 704 704 681
822 820 818 816 814 812 810 809 808 807 807 805 804 804 801 797 788 775 769 769 767 769 768 765 765 762 758 757 754 748 744 741 741 743 741 736 734 733 731 727 725 725 727 727 726 725 726 724 716 710 709 700 690 691 695 691 686 683 681 675 670 665 656 659 679 695 697 692 683 673 664 658 655 652 651 652 655 664 674 680 689 697 692 687 694 692 676
820 818 816 814 813 811 809 808 807 806 806 804 804 804 802 800 794 781 772 769 768 768 766 766 770 769 768 767 760 755 752 745 740 740 740 735 731 732 731 727 726 728 729 732 732 727 726 727 722 717 716 710 700 698 699 695 688 683 678 671 668 665 655 649 656 664 668 669 662 653 650 655 656 653 651 652 652 655 665 678 687 689 690 689 684 679 673
819 816 815 813 811 810 808 807 806 805 804 804 803 802 801 803 799 788 781 777 773 771 769 771 774 772 771 771 764 758 756 752 744 740 738 735 732 732 731 727 730 733 733 735 736 732 727 726 723 722 721 715 707 702 700 696 690 684 681 674 671 676 672 657 648 645 642 643 643 639 640 647 650 650 651 651 649 651 661 672 673 674 687 691 676 670 674
817 814 813 811 809 808 807 805 804 804 803 803 802 801 800 800 796 788 788 788 783 779 777 775 775 772 768 767 763 759 758 755 750 745 740 737 736 735 733 731 732 735 737 738 739 736 732 728 724 724 723 717 710 703 698 695 692 690 689 681 677 685 681 663 655 650 637 632 634 633 636 641 640 642 645 646 647 650 655 660 661 664 674 678 668 665 669
814 812 811 809 808 806 805 804 803 802 802 802 801 801 798 797 795 789 788 790 788 786 782 777 774 772 769 768 763 760 759 756 752 749 746 745 741 738 739 737 735 736 737 739 742 741 737 732 726 725 725 722 719 713 705 697 695 698 699 686 679 685 679 665 665 659 640 631 631 628 631 638 638 638 639 640 642 643 645 649 652 654 657 658 659 660 659
812 810 809 807 805 804 802 802 801 800 801 800 799 800 797 796 797 793 791 791 788 785 782 779 778 774 772 770 765 760 760 758 754 751 750 750 746 741 742 740 737 737 737 739 741 739 736 733 727 724 726 726 724 722 714 705 701 704 705 692 683 687 683 670 669 669 650 631 627 627 629 633 638 638 635 634 638 641 643 644 646 651 655 655 657 660 657
810 807 806 804 803 802 800 800 799 798 799 799 797 797 796 795 796 795 795 793 786 783 781 780 781 778 773 771 767 763 763 761 759 755 748 748 748 744 744 743 738 736 737 738 737 733 730 730 724 722 724 724 723 721 716 712 710 708 707 700 689 688 686 674 675 682 665 638 629 629 625 629 638 638 634 633 636 639 640 639 640 646 652 655 659 663 657
807 805 803 801 800 799 798 797 797 797 797 797 797 795 793 794 794 793 796 793 786 784 782 779 780 777 772 770 768 767 766 763 763 761 749 743 744 744 743 744 742 740 738 736 732 728 726 724 721 719 719 717 716 716 711 711 712 709 707 704 693 688 688 682 683 690 675 649 636 628 629 644 647 632 626 630 632 633 634 634 632 633 638 647 653 651 643
805 802 801 799 798 797 796 795 795 795 795 794 795 794 792 794 794 792 794 793 785 782 782 780 779 774 768 767 766 765 765 764 765 766 757 745 741 742 741 740 742 740 735 728 724 722 721 719 717 715 713 711 710 709 706 705 705 702 702 702 693 686 687 686 685 688 679 658 642 634 643 656 641 612 608 618 622 626 632 634 631 626 627 631 633 630 627
803 800 799 797 796 795 794 794 793 792 793 792 793 792 791 792 793 792 794 793 785 781 783 781 777 773 768 767 766 763 763 763 761 760 756 746 741 741 739 737 738 735 727 722 720 720 718 717 715 713 710 707 703 700 699 698 697 692 690 693 691 685 685 683 679 680 675 659 650 655 656 643 618 601 600 604 608 615 624 631 629 624 623 623 625 628 627
802 799 798 796 795 794 792 792 791 790 790 791 790 790 790 791 792 791 792 793 787 783 783 780 774 773 770 766 765 764 761 758 753 750 749 745 742 740 737 734 734 729 722 720 720 721 721 720 719 715 708 701 696 693 692 689 689 686 680 680 682 680 681 678 674 674 671 663 661 660 645 620 604 601 599 601 608 614 624 638 637 627 625 625 628 629 625
801 798 797 795 793 792 791 790 790 789 789 789 789 789 789 789 790 789 789 791 786 780 781 780 773 771 769 765 765 764 760 755 751 749 748 745 741 739 735 732 729 724 721 720 720 722 724 724 724 719 709 701 695 689 684 679 677 676 672 668 667 669 672 674 674 671 667 668 661 645 633 624 614 608 604 603 609 610 618 639 643 631 627 628 627 628 624
800 798 796 794 792 791 790 789 789 788 788 788 787 787 787 787 787 788 787 788 787 781 779 778 773 769 769 767 766 765 761 757 754 751 747 744 741 737 733 730 727 723 720 721 723 724 724 727 732 729 718 708 701 691 681 674 668 663 662 661 658 659 661 665 671 668 662 670 667 649 645 643 626 613 604 596 600 601 604 629 644 633 627 627 625 626 626
800 797 795 793 791 790 789 788 788 787 786 786 785 785 785 785 785 786 785 786 787 781 773 770 770 770 770 768 765 764 763 760 757 753 749 745 741 736 731 728 726 724 723 722 722 725 728 730 732 729 720 711 707 700 689 683 676 664 657 657 656 656 653 652 664 670 667 676 676 655 647 646 634 624 611 598 599 597 601 636 656 637 625 628 626 627 628
799 797 794 792 791 789 789 787 787 786 785 784 784 783 783 783 783 784 783 784 784 778 769 767 769 771 771 769 765 762 761 758 755 755 753 748 742 737 732 728 726 725 726 725 723 726 734 734 729 728 724 712 706 705 697 692 688 676 665 663 662 663 658 654 668 678 677 682 677 650 640 650 648 637 625 611 600 593 614 658 667 638 625 629 627 627 630
798 796 794 792 790 788 787 786 785 785 784 783 782 782 781 781 782 782 782 782 781 775 767 766 768 769 768 767 764 761 758 755 754 755 754 748 742 739 734 731 730 726 726 730 730 729 733 732 726 727 724 709 702 705 701 695 692 684 676 674 673 673 669 667 677 685 683 685 679 657 649 655 650 637 627 614 600 604 634 660 650 630 629 630 625 627 630
797 795 793 791 790 788 786 785 784 783 783 782 781 780 779 779 780 780 780 780 778 772 766 764 766 765 762 761 760 757 754 753 753 754 755 749 742 736 734 734 734 730 728 734 735 731 731 728 721 721 722 712 703 701 699 695 692 687 681 678 679 681 677 675 683 689 688 685 678 668 663 655 644 636 622 607 609 627 643 642 629 627 632 628 625 629 628
796 794 792 790 789 787 786 784 784 783 782 781 780 779 778 777 778 778 777 777 775 769 764 763 763 761 758 758 758 756 753 753 752 752 754 749 741 737 739 739 736 732 732 737 737 734 734 730 721 717 718 714 705 699 697 694 690 686 681 678 680 682 681 683 686 687 689 689 685 686 681 661 647 644 632 624 634 641 634 628 628 630 630 629 630 631 629
796 793 792 790 788 786 785 783 782 781 780 780 779 777 776 775 775 775 774 774 773 768 762 759 758 757 756 755 754 753 752 751 749 749 749 745 740 742 744 740 735 733 734 736 736 734 735 734 729 723 717 711 706 702 699 694 686 683 681 678 678 680 682 687 688 684 689 697 695 690 684 668 657 658 655 650 648 639 629 630 634 633 632 633 634 634 634
795 792 790 789 787 785 784 782 781 780 779 778 777 776 774 773 773 774 772 771 771 766 760 757 755 753 751 749 747 747 746 745 743 744 746 743 740 740 740 736 735 733 733 736 736 732 733 735 734 729 722 714 709 703 700 697 691 687 684 680 679 680 678 681 684 681 682 688 685 677 674 668 662 661 659 652 643 636 635 636 636 637 638 636 636 640 640
793 791 789 787 785 784 783 781 780 779 777 776 775 774 773 771 770 771 771 768 766 762 756 753 751 748 745 742 740 739 739 739 738 738 740 742 740 737 736 734 733 730 730 733 732 728 730 733 731 729 724 717 711 705 702 699 696 691 687 681 678 678 675 675 680 679 676 677 677 673 673 671 664 658 655 650 643 641 641 640 639 641 640 638 640 642 642
792 789 788 786 784 782 781 779 778 777 775 775 773 772 770 769 768 769 768 766 765 761 754 749 747 745 741 737 735 735 733 734 734 732 733 737 738 736 733 729 727 726 725 726 725 723 726 727 727 728 725 716 710 708 704 699 695 691 688 684 679 678 676 675 677 678 677 679 679 677 674 671 666 660 656 652 648 645 645 646 646 644 640 640 642 642 642
790 787 786 784 782 780 779 777 776 775 773 772 771 770 768 766 766 767 767 765 764 762 757 750 743 739 737 735 733 732 730 729 729 729 729 731 732 731 727 723 722 723 721 720 722 724 725 724 725 728 725 715 709 707 702 698 695 692 689 687 683 678 676 676 677 678 676 675 676 676 673 669 666 663 660 658 655 652 650 651 650 648 646 644 644 643 644
787 785 783 781 779 778 777 775 774 772 771 770 769 768 766 764 763 765 764 763 762 761 758 751 740 734 735 734 729 726 726 725 724 723 724 724 724 723 721 719 719 719 717 719 721 721 721 721 722 724 723 714 707 706 703 698 695 693 691 686 679 676 676 676 678 679 677 674 674 675 673 669 666 665 663 660 659 657 656 656 654 653 652 650 648 648 647
784 782 780 778 776 775 774 772 771 770 769 768 766 765 763 761 760 760 759 760 761 758 754 749 740 733 733 731 724 721 721 720 719 718 717 718 718 718 718 717 717 716 716 718 719 718 717 718 718 717 715 709 703 702 700 694 691 693 692 684 676 677 679 677 677 680 680 678 677 677 678 678 675 670 666 662 660 660 661 661 659 657 657 656 654 654 652
779 778 776 774 773 772 771 769 768 767 766 765 763 762 759 756 754 754 754 756 757 755 752 747 740 735 732 726 719 717 717 715 715 715 713 712 713 714 713 713 713 714 715 716 716 715 714 714 713 710 708 706 704 701 696 694 692 692 690 685 679 678 678 676 677 679 678 676 675 675 678 680 677 672 666 662 661 661 662 664 665 664 661 659 658 657 657
775 773 772 770 769 768 767 766 766 765 764 763 761 758 755 751 749 750 750 751 753 752 751 748 742 736 730 723 716 713 713 711 711 710 709 709 709 708 708 708 709 710 711 712 712 712 710 709 708 706 703 703 705 701 695 694 693 688 684 683 680 675 673 674 676 677 676 674 674 674 675 677 675 671 666 662 662 665 667 669 672 672 667 663 661 660 660
771 769 767 766 765 764 763 763 763 762 762 761 760 758 754 749 747 747 747 748 750 750 751 750 744 735 727 721 715 711 709 707 707 706 705 705 704 703 703 703 704 705 707 707 707 708 707 706 706 704 701 700 703 701 696 694 691 685 681 681 679 675 673 673 674 675 675 674 673 673 674 675 674 671 668 666 667 671 673 674 675 675 671 666 663 662 663
767 765 763 761 761 760 759 759 759 759 760 759 759 759 756 751 747 746 747 748 749 749 749 749 744 734 725 718 713 710 707 705 703 702 701 700 700 699 698 698 699 701 703 704 704 704 704 705 705 703 700 699 702 702 699 696 692 685 681 680 677 676 675 673 672 673 673 673 673 673 674 674 673 672 672 670 671 674 676 674 672 672 672 669 666 665 665
763 761 759 757 756 755 755 755 755 755 756 756 755 753 750 747 746 746 747 748 748 748 749 748 743 736 728 718 710 707 706 703 701 700 699 697 697 696 695 695 695 696 697 701 703 703 703 704 704 702 700 700 701 700 698 697 692 685 680 678 677 675 675 674 672 672 671 670 671 674 676 676 674 673 673 672 671 672 673 670 668 670 672 671 668 667 667
759 757 755 754 753 752 751 751 751 752 752 751 750 747 742 741 743 743 744 746 746 746 747 746 742 737 729 719 711 707 704 704 704 703 700 698 698 697 695 693 692 692 695 698 701 702 702 703 703 702 700 699 699 698 696 692 686 680 677 677 676 675 674 673 672 671 670 667 667 671 675 677 675 673 672 671 671 671 670 668 668 670 673 673 672 670 669
756 754 752 751 750 749 749 748 748 749 748 748 746 741 737 738 738 738 741 744 744 743 742 742 740 736 727 720 715 709 705 706 708 706 703 701 699 697 696 693 691 693 696 698 699 701 703 703 703 703 700 697 697 698 694 686 680 678 678 677 675 674 673 672 671 671 670 667 666 667 671 675 676 675 673 672 672 671 670 669 670 671 673 675 675 674 673
753 751 750 748 747 746 745 745 744 745 745 744 740 735 734 735 735 735 737 738 740 741 740 737 736 734 728 724 720 711 705 706 707 705 704 702 697 696 695 694 694 698 699 698 700 702 702 701 703 703 700 696 696 695 689 683 680 679 679 678 676 674 673 672 672 671 670 668 668 667 669 674 678 678 676 675 674 673 673 674 673 673 674 676 676 676 675
750 748 747 745 744 742 741 741 742 742 741 739 735 732 732 733 732 733 734 734 735 737 736 733 733 731 728 727 721 710 705 706 707 704 703 701 698 697 696 696 699 702 701 699 701 702 700 700 702 702 699 697 695 690 684 682 681 681 680 680 678 675 674 674 673 672 670 670 671 670 671 675 679 679 677 675 675 675 676 677 676 675 676 677 678 678 677
749 747 745 742 741 741 740 739 739 739 737 734 732 731 732 731 731 732 732 731 732 732 732 733 731 727 725 725 720 711 707 708 706 704 703 702 700 699 698 698 701 703 702 701 702 701 700 700 701 701 700 697 692 686 683 682 682 681 681 680 678 676 676 674 672 672 672 673 674 675 676 680 682 681 679 678 677 677 679 679 678 677 678 679 680 679 678
748 746 744 742 741 741 740 738 737 737 735 733 732 732 731 730 731 731 729 729 728 727 728 731 729 724 724 724 718 710 708 708 706 705 704 701 700 702 701 702 703 704 705 706 702 698 699 701 700 700 698 693 688 686 684 683 682 682 681 681 680 678 677 675 674 673 674 676 678 681 682 684 684 683 681 680 680 680 681 681 679 679 679 680 680 680 679
747 745 744 744 743 741 739 736 735 735 734 732 732 732 730 729 730 729 726 726 726 725 725 727 724 721 722 723 717 709 707 709 709 708 705 702 702 704 705 705 704 705 710 709 702 699 703 704 701 699 697 692 689 688 686 683 684 683 682 681 680 678 677 677 676 677 677 680 683 685 684 684 684 684 683 683 682 682 683 683 681 680 680 680 680 680 679
745 744 745 744 742 739 736 734 733 733 732 731 731 731 730 729 728 726 724 725 726 723 721 720 717 714 715 717 715 709 706 706 708 707 705 703 702 703 706 707 705 707 713 712 704 701 704 706 703 702 700 694 691 690 687 685 684 683 681 681 680 679 679 679 680 680 681 683 685 685 683 682 682 682 683 683 683 683 684 683 682 682 681 681 681 681 679
746 745 745 744 741 738 735 733 732 732 731 730 730 730 729 726 723 722 723 723 721 716 713 714 713 710 707 710 712 708 704 703 702 702 703 704 702 703 709 710 706 708 713 712 705 701 703 706 708 707 702 696 693 690 688 686 685 683 683 682 681 681 682 682 682 682 682 683 684 684 682 681 681 681 682 682 682 683 683 683 682 682 682 682 682 681 679
748 746 745 742 740 738 736 734 733 732 732 731 730 728 726 722 719 719 720 719 715 710 708 708 708 704 700 702 704 703 700 699 699 701 704 705 702 703 710 713 711 711 711 708 704 704 707 710 712 708 701 697 696 693 691 690 688 687 686 686 685 685 684 684 683 683 682 682 683 683 683 682 682 682 683 683 683 683 683 683 683 684 683 682 682 681 680
747 745 743 743 741 738 737 736 735 734 736 737 735 730 726 722 718 716 716 713 709 707 705 702 700 698 696 697 698 697 696 697 697 699 702 704 703 706 713 717 715 711 707 705 707 709 710 711 712 709 703 700 698 696 694 694 692 690 689 688 688 688 687 685 685 685 683 682 683 683 683 683 683 684 684 684 683 684 684 684 684 684 683 683 683 683 682
745 743 743 743 742 739 738 737 735 735 738 741 741 738 733 727 721 717 716 712 708 706 703 700 698 697 695 693 693 694 694 694 695 697 699 701 703 709 715 715 710 705 705 709 712 713 710 708 709 707 705 703 700 699 698 698 696 694 694 693 691 691 690 689 688 687 686 687 687 686 686 687 686 686 686 686 686 686 686 686 685 685 684 684 684 685 684
746 745 745 744 741 739 739 738 737 737 739 739 739 739 735 729 722 719 716 711 707 704 702 699 698 697 693 690 691 693 692 692 694 696 696 697 701 706 708 707 703 703 708 714 716 714 712 711 709 707 706 705 703 702 702 701 700 698 698 697 696 695 695 694 692 691 690 690 690 690 690 691 690 689 689 689 689 688 687 687 687 687 686 686 686 687 687
747 747 748 748 745 743 744 744 742 741 739 736 734 734 731 727 722 717 711 706 703 702 701 698 696 695 693 690 690 690 690 690 692 693 692 696 703 706 704 702 704 707 711 715 716 714 713 713 711 709 708 708 706 705 704 704 703 702 701 700 700 699 699 698 697 694 692 692 691 691 692 692 691 691 691 691 691 690 689 689 689 688 688 688 689 690 690
749 748 749 751 749 747 746 744 743 742 740 736 732 730 727 723 719 713 707 703 702 699 697 695 694 694 693 691 690 691 689 689 692 693 693 698 705 706 702 705 714 718 717 717 716 713 712 712 713 712 711 710 709 708 707 706 705 704 703 703 702 700 699 698 696 695 694 694 694 694 694 694 694 693 693 693 693 692 691 691 691 690 690 691 691 691 691
751 750 751 753 753 751 746 742 741 741 738 734 730 726 722 719 716 710 704 701 699 697 696 694 693 693 693 691 691 692 691 690 694 697 696 697 704 707 709 714 721 723 720 718 717 714 714 715 716 714 712 711 710 709 708 707 705 704 703 703 702 700 699 699 698 698 698 697 697 697 697 697 697 697 696 696 696 695 694 694 694 693 693 693 693 693 693
752 752 752 753 755 752 745 740 740 739 735 729 727 723 719 718 715 710 704 700 697 695 694 693 692 694 696 694 693 696 698 698 701 703 702 703 708 713 717 721 724 723 721 721 720 719 718 718 717 715 714 712 710 709 708 707 706 705 704 704 703 703 703 702 702 702 701 701 701 701 701 701 701 700 700 699 699 699 698 697 696 696 696 696 696 696 696
751 751 750 751 752 750 743 738 740 742 738 732 729 726 722 720 717 711 707 704 700 696 694 693 694 697 700 700 701 705 709 709 711 713 715 716 718 722 725 727 727 726 725 724 723 722 722 721 719 718 717 715 712 712 711 709 708 707 707 707 707 707 706 706 706 706 706 705 705 705 705 705 705 704 704 703 703 702 700 700 699 699 699 699 699 699 699
753 751 749 748 750 749 745 743 745 746 744 740 736 732 728 726 722 716 712 707 703 700 702 703 703 704 707 711 715 719 720 720 720 724 726 727 729 733 736 735 732 728 727 727 726 726 725 724 722 722 721 719 717 716 715 714 713 713 712 711 710 710 710 710 710 710 710 710 710 709 709 709 709 708 707 706 705 704 704 704 704 703 703 704 704 704 704
755 754 751 749 748 748 748 748 748 747 744 742 739 736 732 730 727 722 716 711 709 710 713 713 711 713 719 724 726 726 727 729 732 735 736 736 736 737 738 737 734 732 731 731 729 728 727 726 725 725 725 724 722 720 718 717 717 717 717 716 716 716 716 715 715 715 715 715 715 714 714 713 712 711 710 709 710 710 710 710 709 708 708 708 708 708 707
Wind_Speed
26 26 26 26 26 25 25 25 23 23 22 20 19 15 6 2 8 21 28 27 18 6 2 4 2 1 4 6 7 7 6 8 8 7 7 6 6 7 6 6 6 4 3 5 8 9 7 7 7 9 9 9 7 14 23 21 14 6 6 10 11 9 6 6 7 7 8 10 9 6 10 15 13 12 10 9 9 8 6 5 4 4 6 4 4 7 7
26 26 25 25 26 25 25 24 23 22 19 17 15 10 4 4 8 13 18 21 13 2 1 3 4 5 7 7 8 8 6 6 5 6 8 6 5 6 6 6 6 4 5 5 6 8 6 5 7 7 7 7 9 16 23 22 12 7 7 6 3 6 7 7 6 6 7 9 9 7 7 9 9 10 12 14 14 11 6 4 4 4 6 6 6 8 6
26 26 25 25 26 25 24 23 22 20 18 15 11 6 3 5 4 5 10 15 9 0 1 4 4 6 9 9 9 9 7 7 7 7 8 7 6 6 6 6 7 5 6 6 6 6 4 4 7 7 7 9 9 15 22 19 10 10 16 14 7 6 7 9 8 9 10 9 9 8 6 7 7 9 14 17 17 15 8 4 5 6 5 5 6 6 5
26 26 25 25 25 25 24 23 21 19 17 14 10 5 3 4 4 4 6 6 3 2 5 7 6 7 9 7 7 8 8 8 9 9 7 5 6 7 6 6 7 5 6 7 6 6 6 6 6 6 9 9 8 13 17 14 13 20 23 18 8 4 5 8 13 14 12 11 9 6 6 8 10 10 13 16 18 18 12 6 7 6 4 4 7 5 3
26 25 25 25 25 24 23 22 20 17 15 12 9 4 2 2 3 4 5 4 3 4 5 7 7 7 7 4 5 8 8 8 8 7 5 5 8 7 4 5 6 5 7 7 4 7 10 10 7 6 8 9 9 13 12 9 16 24 21 16 8 2 4 7 13 17 17 15 13 11 8 10 14 15 14 16 18 18 15 12 8 8 6 9 9 6 6
26 25 25 25 24 23 22 21 19 16 13 11 7 3 2 2 2 3 5 5 4 6 7 9 9 9 8 5 6 9 9 8 6 5 6 8 9 5 2 4 5 6 8 6 4 8 10 9 8 7 8 11 12 13 9 6 16 22 15 12 8 2 4 6 8 14 19 19 17 18 13 9 11 15 16 17 20 21 20 16 10 11 9 12 8 9 9
26 26 25 25 24 22 21 20 18 16 12 9 6 3 3 3 2 4 5 3 4 7 10 12 11 10 8 6 6 8 9 9 7 5 6 7 8 7 6 6 6 6 6 5 3 6 7 8 8 8 9 11 11 11 8 4 10 17 14 10 7 3 4 5 11 12 16 20 19 19 18 12 9 12 15 16 18 22 22 19 14 13 12 10 8 10 11
27 26 25 25 24 22 21 20 17 15 11 7 5 4 4 2 1 3 4 3 5 6 7 8 8 8 7 5 6 7 8 9 9 6 5 7 8 7 7 8 7 5 5 5 5 6 7 10 10 8 8 9 6 5 6 6 11 14 11 8 7 4 4 8 11 10 10 17 21 19 19 17 12 10 13 15 16 18 19 18 15 12 11 8 8 10 9
27 26 24 23 23 21 21 19 16 14 10 6 4 4 5 4 2 3 3 4 5 5 4 5 5 5 4 3 4 6 7 9 10 9 7 7 7 7 8 11 10 6 4 6 9 10 9 12 12 9 9 8 5 4 6 9 13 11 7 8 8 5 5 7 7 6 6 11 19 22 20 17 14 12 13 14 14 14 14 13 12 10 9 8 7 8 8
26 25 23 22 21 20 18 16 14 12 9 7 5 3 4 4 3 3 2 3 4 4 4 5 4 4 3 2 4 5 5 10 12 8 6 6 6 7 8 10 9 6 7 9 10 11 11 13 13 10 10 10 8 9 11 12 13 10 8 8 7 5 6 6 6 4 6 10 14 20 19 13 13 14 12 11 9 10 11 11 12 12 10 8 8 8 7
25 23 21 20 19 18 17 15 13 11 9 10 8 5 5 3 2 2 2 3 4 3 3 4 4 5 7 8 9 7 7 11 9 3 4 7 8 8 9 9 6 6 9 10 9 8 10 12 12 11 12 14 13 13 15 16 15 13 10 7 7 7 7 5 4 2 6 14 13 14 16 12 11 8 10 13 11 10 9 7 9 11 8 6 7 8 8
25 22 19 18 17 16 16 15 13 11 10 11 11 10 9 6 3 2 2 3 5 3 3 4 6 8 12 12 12 10 10 10 9 6 7 9 9 8 10 9 6 5 7 8 7 8 9 9 11 12 14 16 16 15 16 17 17 15 12 9 9 10 8 5 3 3 5 10 9 10 13 11 8 3 7 13 13 12 9 2 2 5 7 5 2 2 4
23 21 19 17 17 16 15 14 12 9 8 8 11 13 12 8 4 2 1 3 5 3 3 7 9 11 13 13 11 11 12 12 11 9 9 9 9 9 9 7 6 6 6 6 7 7 7 6 8 10 11 12 12 12 15 18 17 16 16 14 12 10 8 5 3 4 5 5 4 9 9 5 3 1 3 6 8 10 9 5 5 4 3 3 6 5 5
22 20 19 18 17 16 15 14 11 9 6 6 10 13 12 10 6 2 1 3 4 4 4 7 8 9 11 11 9 10 11 11 10 8 8 9 9 9 9 8 9 10 8 4 4 4 4 3 4 6 6 6 6 6 9 14 16 18 19 16 12 10 8 5 4 4 3 3 5 5 4 2 2 1 1 3 5 9 9 5 3 6 5 2 8 8 6
21 20 19 18 17 16 15 14 12 9 6 6 9 11 12 11 9 5 2 2 4 5 4 5 6 7 9 9 9 9 8 7 6 6 7 7 7 8 9 8 10 12 8 2 1 1 2 1 2 4 3 2 4 3 3 5 9 14 15 10 8 9 7 5 4 3 1 3 5 3 3 4 3 2 2 3 6 8 11 8 1 5 6 2 5 7 5
21 20 20 19 18 17 16 14 12 10 8 7 8 10 11 10 10 9 5 2 4 4 3 4 6 7 8 8 8 8 5 4 5 5 5 5 6 8 9 7 9 11 8 2 2 1 1 1 2 3 3 2 4 3 2 2 2 5 5 1 5 6 3 5 3 1 2 3 5 4 4 3 4 8 5 1 5 8 11 8 2 5 6 4 3 7 6
21 20 20 20 19 17 16 15 13 11 9 8 8 9 10 9 9 10 6 2 4 4 5 7 7 5 5 5 6 4 3 3 4 2 3 5 7 8 8 7 7 7 5 4 1 2 1 3 2 3 3 3 4 4 3 2 2 3 2 3 6 5 2 4 2 1 3 4 5 4 2 2 9 13 13 12 4 7 10 4 4 5 5 4 5 8 5
21 20 20 19 18 17 16 15 13 11 9 7 7 9 12 10 8 8 5 3 4 4 5 7 7 5 4 5 5 5 4 4 3 1 3 5 5 6 6 5 5 3 3 3 1 1 1 3 3 2 3 3 4 4 4 3 2 2 2 2 3 3 2 3 2 2 5 5 5 3 1 3 12 16 16 16 7 5 7 4 6 3 1 2 6 7 4
20 20 19 18 17 16 16 15 13 11 10 8 7 8 11 9 7 8 7 3 4 5 3 5 7 8 8 7 6 6 5 5 3 2 4 5 3 5 6 4 3 2 2 1 1 1 1 3 3 2 2 3 3 3 3 3 3 2 2 1 2 2 1 3 2 1 3 4 4 4 1 3 15 21 18 10 3 4 5 4 3 3 4 5 6 6 5
20 19 18 18 17 16 15 15 13 12 10 9 8 10 13 11 9 10 10 6 4 6 7 9 12 13 11 8 7 7 6 5 3 2 3 4 3 6 6 2 2 2 1 1 1 1 1 2 2 2 2 3 3 2 3 3 4 3 2 1 2 1 1 3 2 0 2 3 3 2 2 6 18 21 13 8 6 2 3 3 4 4 6 7 7 6 6
19 19 18 18 17 17 16 15 14 13 12 10 9 10 14 13 11 10 12 10 6 4 5 8 12 14 13 13 14 14 10 8 7 5 4 5 3 3 3 2 3 3 1 0 1 0 1 2 2 2 2 2 1 2 2 2 2 2 3 1 1 1 0 2 2 1 1 1 1 1 3 8 14 11 5 4 6 5 1 5 6 5 5 6 6 6 6
20 19 18 18 17 17 16 15 14 14 13 12 10 9 12 14 13 11 11 10 9 9 11 16 20 23 26 28 29 28 24 22 21 15 8 5 4 4 4 5 5 3 0 0 2 1 0 1 2 3 3 2 2 2 2 1 1 2 3 2 1 0 1 1 1 1 1 2 3 3 4 6 8 7 5 7 9 9 6 5 7 5 4 4 6 6 6
20 20 19 19 18 17 16 15 14 13 12 12 11 9 12 16 16 13 12 10 9 12 18 22 22 21 21 25 27 28 29 30 30 26 17 8 5 5 5 5 5 3 2 2 3 2 1 2 1 3 3 3 3 3 2 2 2 2 3 2 1 1 1 1 2 2 1 2 3 4 5 6 8 8 8 9 11 11 9 6 6 6 5 5 7 7 6
20 20 20 19 18 18 17 15 15 14 12 12 12 11 14 17 16 13 11 8 5 5 9 11 9 8 12 17 21 23 23 24 27 29 26 17 7 4 4 6 5 2 2 4 3 1 1 1 0 2 3 3 3 3 2 2 2 1 2 1 1 1 2 1 1 0 1 2 2 3 5 5 7 9 10 12 12 11 10 8 6 5 7 8 7 8 8
21 20 20 19 18 18 17 16 15 15 14 13 13 13 15 16 14 10 8 6 3 3 5 5 5 8 14 18 19 21 22 21 21 23 24 23 16 10 8 8 8 6 4 2 2 1 1 1 0 2 4 3 3 3 2 1 1 2 1 1 1 2 2 1 2 1 2 1 3 6 6 4 6 8 8 10 11 10 10 8 7 7 9 9 8 8 8
24 23 21 20 19 18 17 17 17 16 15 15 15 15 17 19 17 13 11 8 4 4 5 5 5 7 10 14 20 25 26 25 25 24 22 22 24 23 17 11 10 9 5 2 3 3 2 1 2 3 4 3 2 3 4 3 3 3 2 3 3 2 1 0 1 1 2 1 4 7 6 4 8 10 8 9 10 9 10 9 8 9 9 9 10 9 8
26 25 23 22 20 19 18 18 17 17 17 16 17 18 20 22 21 17 15 11 4 2 4 5 5 7 10 17 27 31 26 21 21 22 21 21 22 22 18 11 8 7 5 2 3 3 2 2 3 4 4 3 3 3 3 4 3 2 2 3 3 1 1 1 2 2 0 1 3 6 4 3 6 7 8 9 10 9 9 9 8 9 8 8 10 10 9
28 25 24 22 21 20 19 18 18 18 17 17 19 21 22 23 21 18 19 18 11 3 3 4 6 9 11 15 22 24 21 19 19 18 18 19 20 19 15 10 7 6 4 4 4 3 3 3 3 3 2 2 2 3 3 2 2 2 2 3 3 2 2 1 2 2 1 1 3 3 2 1 4 5 6 8 9 8 9 9 9 8 7 7 8 10 10
28 25 24 23 22 21 20 19 18 17 16 17 18 19 18 16 12 10 14 17 15 7 3 5 6 6 7 11 17 21 22 21 18 15 12 13 16 15 12 10 9 7 5 5 4 4 3 3 2 2 1 1 1 4 3 2 2 2 2 3 3 2 2 2 2 1 2 2 3 2 1 1 3 4 6 8 8 7 7 7 7 7 5 6 8 8 8
27 25 24 22 21 21 20 19 18 16 15 15 13 10 8 7 5 6 7 10 11 6 2 4 4 4 5 9 13 15 17 16 14 12 9 7 9 10 10 9 8 7 5 4 3 3 3 2 1 2 1 2 1 3 3 1 2 2 2 2 2 1 0 1 1 2 2 2 3 3 2 2 1 2 5 7 7 5 3 4 3 4 5 5 6 7 6
26 24 23 22 21 20 19 19 18 15 14 12 7 2 1 1 2 5 7 9 7 2 2 3 4 5 5 5 7 9 13 14 10 8 6 4 5 8 11 9 6 5 6 5 2 2 2 1 1 2 1 2 1 2 3 2 3 3 2 1 1 1 1 1 1 3 3 3 5 3 3 1 1 1 4 5 5 3 2 3 5 5 5 6 6 6 5
29 26 24 21 20 19 18 18 16 15 15 15 12 10 10 10 7 8 10 9 5 3 2 3 4 4 3 3 6 10 13 11 7 4 2 2 2 4 7 6 4 5 6 3 1 1 1 2 1 2 1 2 2 2 2 2 3 4 3 3 2 1 3 3 2 2 3 4 5 5 4 1 0 1 3 3 4 4 3 5 6 6 5 5 6 7 7
33 29 25 21 18 16 15 15 13 14 15 17 19 23 25 22 17 16 17 16 10 4 3 2 3 4 2 3 6 8 7 5 4 3 3 2 2 2 3 3 4 4 2 2 2 1 0 1 1 2 1 2 2 2 2 3 4 3 3 4 3 3 3 2 3 3 3 3 2 4 5 3 2 3 4 4 4 4 4 5 6 4 4 5 6 7 7
31 26 22 19 17 15 15 13 12 13 12 13 17 21 20 14 12 13 16 14 7 3 4 3 2 3 3 3 3 3 3 2 1 1 2 2 3 2 2 2 1 2 0 0 1 1 1 1 1 2 2 2 2 2 3 3 3 3 3 4 4 3 2 2 4 5 4 1 4 7 7 4 3 4 5 5 5 5 5 6 5 4 5 5 6 6 5
28 21 19 19 19 18 17 14 11 11 9 9 14 15 12 9 9 10 12 12 6 1 2 3 2 3 3 3 3 2 2 1 2 2 1 2 2 1 1 2 2 0 1 1 1 1 1 1 1 1 2 2 2 3 3 3 2 2 3 4 5 4 3 3 5 5 4 3 6 8 7 5 3 4 5 5 4 5 6 5 4 4 5 5 5 4 4
24 18 18 20 18 15 13 9 8 8 6 8 11 11 9 9 10 10 13 14 9 4 2 2 3 3 2 2 3 2 2 1 2 1 2 2 2 2 0 2 2 1 1 0 0 2 1 1 1 1 2 2 3 3 2 1 2 3 3 3 4 4 3 3 4 4 5 7 7 8 8 6 3 2 3 4 4 4 4 4 3 4 5 5 4 4 4
21 17 18 17 12 7 4 3 5 5 7 11 12 9 7 7 7 6 8 10 10 8 4 2 3 4 2 2 2 2 2 1 1 1 1 1 0 1 1 2 1 1 1 1 1 1 1 1 1 1 2 3 2 2 3 3 3 4 3 3 3 3 3 4 4 4 7 10 10 9 8 7 4 2 3 4 3 3 2 3 3 3 5 4 3 3 3
19 15 14 10 5 2 1 2 5 11 13 12 10 6 3 3 3 3 4 4 5 6 4 2 4 3 2 3 4 2 2 1 1 1 2 1 0 1 1 1 1 0 1 1 1 1 0 0 0 1 3 2 2 4 5 4 3 3 3 2 2 2 3 5 5 5 8 9 8 6 6 7 6 5 5 5 5 4 3 3 2 2 3 1 2 3 4
17 12 8 5 1 1 5 11 18 19 14 8 6 3 1 2 1 2 2 2 2 2 2 2 4 3 4 5 5 3 2 2 1 1 2 0 1 0 0 0 1 1 1 1 1 1 1 1 1 1 2 2 4 5 5 3 3 3 3 3 3 3 4 5 6 6 6 7 5 2 3 6 7 6 5 5 6 5 4 4 4 3 2 1 2 3 4
16 7 2 1 3 8 15 22 23 17 8 3 2 1 1 1 1 1 1 1 1 2 2 3 3 3 5 6 5 3 4 3 1 2 2 1 1 0 1 1 1 1 1 1 1 1 0 1 1 1 2 3 3 4 4 3 3 3 3 3 4 5 5 4 4 4 3 4 5 3 3 4 6 5 5 5 6 6 5 3 4 4 4 4 3 3 3
13 6 2 5 11 17 21 20 14 6 2 2 1 1 1 1 1 1 1 2 2 2 2 2 2 3 4 6 5 3 3 3 2 1 1 0 0 1 2 1 1 1 1 1 0 1 1 2 2 2 2 3 4 4 4 4 4 4 5 6 6 6 5 4 4 4 3 4 5 3 2 3 4 5 5 5 6 6 5 4 5 6 6 6 6 7 8
16 13 13 15 17 16 12 8 4 1 1 1 1 1 2 2 1 1 1 1 1 1 1 2 3 3 2 4 4 3 2 3 2 1 1 1 1 1 1 1 1 1 0 1 1 1 1 2 2 3 3 4 4 5 6 6 5 6 7 7 7 6 5 5 6 5 5 6 6 5 4 5 6 6 6 6 6 6 6 6 6 6 6 8 10 11 13
18 13 10 9 8 5 3 2 2 1 1 1 2 3 2 2 1 1 2 1 1 1 1 2 2 2 1 2 3 2 2 2 2 1 1 1 0 2 2 1 1 1 1 1 1 1 2 3 3 3 3 4 5 5 5 5 5 6 7 7 7 7 7 6 6 5 7 8 9 8 7 6 7 9 10 10 8 7 6 7 8 8 9 12 13 12 13
12 6 3 2 2 1 1 2 2 1 2 2 1 2 3 4 3 3 3 2 1 2 2 3 4 4 2 1 2 1 1 2 2 1 1 1 1 2 1 1 1 1 1 0 2 2 2 3 4 3 2 3 4 5 5 5 6 6 7 7 8 7 7 7 6 7 8 9 9 9 9 8 8 10 12 12 10 7 5 7 9 11 13 14 14 15 16
5 3 3 3 3 2 1 1 2 2 3 2 1 1 3 5 5 4 3 2 2 3 4 4 5 5 4 1 1 1 1 1 1 1 1 2 1 2 1 0 0 0 1 2 3 2 3 4 5 5 5 5 6 6 5 5 5 5 5 7 8 7 7 7 7 7 7 7 7 7 8 6 5 6 9 11 11 10 8 9 11 12 13 13 14 16 17
2 1 2 2 3 2 1 2 2 2 2 2 2 3 4 5 5 5 4 3 3 4 5 5 4 4 3 2 0 0 0 1 1 1 1 2 3 2 1 1 1 2 3 3 3 3 4 4 4 5 6 6 6 6 5 4 4 4 5 6 5 4 3 4 5 5 5 6 6 6 5 4 4 6 8 9 11 12 13 14 15 15 14 12 10 11 14
2 1 2 2 2 2 1 1 1 1 3 4 4 5 5 5 5 5 4 3 4 5 5 4 3 2 2 2 1 1 1 1 1 2 2 2 2 1 1 1 3 3 3 3 3 3 4 4 5 5 5 5 5 4 4 3 2 2 1 2 2 1 2 4 5 6 7 8 8 7 6 6 7 8 8 8 10 13 15 15 16 17 16 14 12 12 12
1 1 1 1 1 2 2 2 2 2 3 4 4 5 5 4 4 6 5 4 3 4 4 3 2 1 1 2 2 2 3 2 2 2 1 1 1 1 2 3 3 2 2 3 4 5 5 5 5 4 5 5 5 4 3 3 2 1 1 2 4 6 7 8 8 8 8 8 7 6 7 8 9 10 9 9 11 14 16 16 16 16 17 16 15 15 14
1 0 1 1 1 2 4 3 3 5 6 5 4 5 5 5 6 8 7 5 5 4 3 2 1 2 3 2 3 4 4 4 3 3 3 3 3 3 2 3 3 3 3 4 5 5 5 5 5 5 5 6 6 6 6 5 6 7 7 7 7 8 7 7 8 9 10 10 9 8 10 11 12 12 11 10 10 14 19 21 19 18 18 18 18 18 17
0 1 0 1 2 2 4 3 4 7 8 7 7 8 8 7 8 8 7 6 6 5 3 2 2 3 3 2 3 4 4 4 3 3 3 4 4 3 3 4 4 4 3 4 5 5 5 4 4 5 6 6 7 8 8 8 9 10 9 8 8 9 10 11 12 12 13 14 15 14 15 14 13 12 12 13 14 18 22 24 22 21 21 21 20 19 19
2 1 1 2 4 4 5 5 6 6 6 7 7 7 7 7 8 9 8 7 5 5 6 5 3 2 3 4 4 3 3 3 3 3 4 4 3 3 3 5 5 4 4 5 5 5 4 4 4 5 6 6 7 7 6 6 8 10 10 10 11 12 12 13 14 14 15 18 19 18 16 16 17 18 20 22 23 20 18 19 21 24 25 24 23 21 20
2 3 3 4 4 5 5 5 5 5 5 6 6 6 7 7 7 9 9 7 7 8 6 4 2 3 4 4 3 2 2 2 3 4 4 3 3 2 3 5 5 5 5 5 5 4 4 3 4 4 4 4 3 3 4 4 6 8 8 10 12 12 11 12 15 17 18 19 19 19 19 20 23 25 25 24 20 14 9 11 17 21 23 24 25 25 24
Wind_Direction
332 332 333 333 333 332 331 332 333 334 338 343 347 342 317 294 286 285 305 327 332 333 351 312 302 281 283 297 297 285 272 268 269 287 300 298 291 286 287 303 311 324 333 325 333 330 301 274 275 274 280 294 331 20 15 357 339 313 228 206 197 192 198 209 219 241 252 249 255 254 220 203 200 210 201 188 198 189 181 192 173 207 224 178 193 237 257
330 330 331 331 331 331 330 331 332 332 337 342 344 341 313 299 289 284 310 329 325 302 338 308 304 314 313 313 316 313 305 301 312 328 332 333 316 304 320 338 337 351 354 334 349 360 338 330 345 317 294 323 358 13 5 352 347 352 338 321 258 225 207 186 194 223 237 247 253 255 235 214 210 209 199 201 199 182 179 190 167 225 223 175 199 234 251
327 327 328 328 330 330 329 330 331 332 333 334 338 333 298 302 281 260 308 325 324 324 2 337 341 343 342 342 338 337 331 327 336 334 318 305 299 306 318 329 328 342 0 348 351 6 340 318 346 339 324 328 343 1 355 339 336 352 343 338 323 263 218 185 188 205 211 219 226 222 205 206 221 210 199 202 198 184 181 177 187 229 220 168 204 233 255
325 326 326 327 328 328 328 328 329 330 330 330 331 319 297 314 301 287 315 329 329 341 350 4 12 351 347 344 330 334 334 325 327 326 312 298 308 316 314 319 325 341 5 353 338 344 325 304 313 325 332 330 327 346 342 322 334 351 347 344 337 282 248 217 206 207 208 208 216 212 172 184 212 212 198 200 202 196 186 181 200 198 169 200 218 193 206
325 324 324 325 326 326 326 326 326 327 327 324 322 306 269 287 286 301 331 334 329 345 358 9 359 330 327 317 303 320 325 320 322 318 315 329 326 317 307 319 327 346 360 350 331 336 327 314 315 325 328 318 311 330 329 317 348 357 350 343 342 316 305 272 232 220 211 202 209 211 183 183 203 207 199 196 201 200 196 205 201 147 158 232 225 175 195
324 323 322 322 324 324 324 323 322 322 322 315 310 282 235 266 275 308 322 309 318 339 332 330 328 318 320 315 300 312 314 311 321 320 326 336 329 317 305 317 336 4 4 350 330 338 331 314 319 336 336 329 328 335 331 335 4 2 345 334 347 293 265 304 290 253 224 206 207 212 206 194 198 205 204 195 197 202 205 211 188 146 188 231 208 182 206
321 320 319 319 321 321 321 321 319 317 316 308 296 256 246 269 270 301 319 307 306 312 305 309 315 316 326 320 298 309 313 313 326 330 332 336 325 315 317 325 347 4 356 349 330 327 321 302 312 333 336 334 336 333 325 340 8 357 335 325 344 311 257 320 338 303 242 215 207 212 215 209 199 209 208 198 197 201 207 212 194 176 205 215 178 192 218
319 318 317 316 319 319 318 319 317 314 312 297 268 238 241 270 312 305 319 306 287 288 291 306 314 311 314 307 291 303 312 317 329 329 316 315 311 315 323 329 339 339 330 327 294 282 285 283 293 315 321 326 339 327 318 327 334 336 329 318 330 333 303 321 338 326 264 224 209 209 217 213 204 210 210 205 204 202 207 214 202 195 216 206 174 199 230
318 317 314 314 316 316 316 318 315 311 302 277 252 235 235 249 276 280 298 302 296 299 300 305 303 292 296 299 301 317 323 319 320 313 295 282 287 315 330 326 324 318 306 297 276 271 275 275 283 298 295 295 307 293 296 310 312 316 317 308 312 314 302 317 336 337 298 244 215 209 215 217 212 214 210 204 206 206 208 208 197 194 202 193 188 210 233
321 318 316 315 317 317 317 316 312 307 288 254 244 251 240 245 255 243 250 292 293 297 299 297 291 283 293 303 292 295 306 307 308 305 288 277 291 318 323 316 315 304 284 276 273 280 286 282 285 290 280 275 274 271 276 280 281 287 295 294 296 297 293 317 340 325 302 287 243 212 209 219 225 221 205 190 199 214 217 210 201 195 179 173 199 215 220
329 326 322 320 319 319 319 315 311 306 282 251 243 257 263 265 266 238 246 278 278 281 295 298 292 292 303 309 302 295 296 298 295 266 265 294 310 316 306 296 291 278 268 266 270 278 278 278 280 278 275 276 272 267 269 266 261 263 270 272 275 283 281 288 309 273 280 299 280 219 201 215 231 214 175 173 187 198 204 215 218 213 204 203 213 211 211
338 336 332 327 324 323 321 318 314 304 281 261 253 257 263 265 261 244 238 273 287 294 289 278 280 293 301 302 303 306 301 288 274 263 281 298 305 303 297 289 274 258 259 270 286 280 267 277 289 284 277 273 268 264 259 254 254 256 257 258 267 279 279 270 264 235 267 299 282 213 203 215 230 209 157 174 183 174 162 131 305 240 233 229 216 202 212
341 340 338 334 330 329 326 323 319 306 288 270 252 252 259 256 241 227 221 260 278 276 273 281 282 285 291 293 298 304 301 292 288 293 300 303 299 298 298 291 284 286 286 301 321 304 281 293 301 287 279 272 266 260 249 244 246 251 253 252 253 262 270 263 255 246 259 292 258 216 220 222 205 74 94 139 158 154 130 66 359 312 274 166 128 125 147
343 341 340 337 335 334 331 328 324 316 303 275 254 256 260 247 228 226 234 245 264 273 283 292 290 282 285 296 307 307 302 303 307 311 311 307 301 299 303 301 301 306 303 309 337 313 284 313 316 297 295 288 275 256 237 232 229 231 240 246 244 248 255 250 246 242 240 281 269 243 250 253 151 109 60 121 155 164 141 113 305 312 337 131 137 127 125
344 343 342 341 340 339 337 334 332 326 316 284 262 260 259 249 238 234 213 235 274 282 262 252 267 289 300 305 309 306 306 312 314 308 301 297 294 294 300 308 311 311 309 297 83 305 263 223 299 296 304 304 297 290 244 228 219 219 226 241 258 252 230 194 208 240 302 307 276 241 202 217 225 250 227 144 139 149 127 109 285 306 340 348 135 120 111
343 343 343 342 342 342 339 336 336 334 323 302 277 265 262 259 242 228 216 226 261 267 261 255 272 296 302 296 292 291 295 302 303 306 301 295 296 298 302 315 319 318 317 285 150 84 289 228 229 262 280 313 313 301 283 289 270 237 220 273 315 287 202 136 151 268 349 320 268 240 179 205 311 339 344 37 134 127 99 77 324 288 322 338 94 106 98
341 341 341 340 340 340 338 335 334 334 325 308 290 276 274 268 242 225 219 222 238 253 284 289 288 294 290 287 288 277 260 274 289 299 294 295 302 305 308 321 326 332 333 306 250 111 223 253 248 253 264 296 299 286 288 295 288 291 314 8 350 337 44 75 65 347 342 323 279 260 131 34 336 337 331 315 297 112 96 95 237 268 315 342 84 98 97
341 341 341 340 339 339 339 337 336 339 334 314 291 279 277 274 253 232 226 240 255 253 254 257 262 269 263 266 277 269 263 284 296 276 278 287 294 301 314 330 328 331 350 322 292 115 213 236 242 257 254 264 270 268 271 248 227 278 309 2 360 347 31 65 66 343 327 314 288 279 122 26 341 331 317 306 302 113 118 191 215 208 342 33 82 92 95
342 343 342 341 341 340 339 339 339 340 339 327 308 288 283 285 266 237 220 220 254 252 249 268 275 274 268 267 270 268 272 286 285 270 281 283 287 301 313 334 324 304 11 25 249 233 248 234 224 231 244 259 266 264 265 244 229 273 288 82 36 335 9 70 75 336 314 299 294 297 216 18 349 333 317 317 330 165 170 182 177 124 90 68 66 72 69
341 342 341 341 341 340 338 339 337 334 331 326 316 299 295 301 292 257 235 225 257 267 263 262 260 260 262 264 263 267 281 284 254 209 245 261 301 327 319 320 315 297 346 33 325 241 262 269 256 226 228 249 266 282 281 246 219 244 275 98 74 313 335 76 86 17 320 306 320 334 260 328 344 338 333 8 23 263 206 103 77 71 72 68 62 58 55
337 337 337 336 337 336 335 336 334 331 328 323 318 306 297 302 308 285 257 242 251 277 268 258 259 260 262 261 260 262 268 264 250 244 250 254 277 317 296 288 318 319 327 357 304 279 283 294 301 287 266 267 275 280 286 263 227 256 283 250 121 287 256 105 114 132 76 319 322 343 275 310 337 344 330 337 338 310 311 89 76 53 57 71 70 54 48
333 333 333 332 331 330 331 332 330 328 326 322 320 307 292 295 305 301 279 252 240 254 269 274 275 272 269 268 266 261 258 257 255 253 254 266 266 251 259 286 292 281 164 238 268 255 182 229 286 297 286 281 270 256 266 283 274 295 289 262 166 100 314 105 142 197 170 178 253 279 294 317 343 356 323 323 355 8 22 79 93 72 46 69 84 76 60
330 330 330 328 327 326 325 325 325 324 322 321 318 302 290 296 302 301 292 269 251 260 267 269 273 274 270 269 270 267 260 256 254 249 241 240 262 252 245 268 273 247 164 190 235 238 175 183 271 299 282 281 288 277 257 242 246 274 283 266 150 118 301 282 159 208 235 186 228 278 318 343 355 1 353 359 19 21 12 33 76 81 75 79 89 95 88
326 325 325 324 323 322 321 319 319 318 315 315 311 300 294 297 300 298 288 267 257 279 271 259 257 264 268 277 287 288 273 255 252 249 238 226 234 269 241 230 238 244 224 216 216 214 187 186 263 286 272 285 295 283 253 223 237 270 268 247 159 172 270 283 127 145 282 163 157 319 321 338 1 9 8 7 15 22 21 20 33 57 73 76 78 87 89
322 319 318 318 316 316 316 314 313 313 311 309 306 303 298 295 296 295 280 263 264 291 287 276 260 265 280 289 292 290 283 274 273 267 245 222 216 234 249 240 234 244 256 226 177 190 221 198 228 266 272 283 280 284 296 255 259 295 294 229 202 207 253 330 61 27 275 170 58 356 315 316 12 20 19 11 10 16 23 24 28 39 54 65 67 70 79
321 316 312 310 310 310 309 309 308 306 305 305 304 300 295 294 293 283 264 263 272 257 263 282 278 276 298 301 289 285 288 288 286 279 260 235 223 227 238 248 247 247 246 165 158 208 217 173 205 245 262 270 263 285 302 287 274 284 274 252 247 237 258 42 82 15 288 278 27 2 332 340 12 16 22 20 15 15 17 22 36 43 45 57 61 57 63
321 315 309 305 303 303 303 304 304 302 302 303 301 298 294 293 289 273 251 245 249 256 256 260 276 296 303 294 289 292 296 291 282 274 261 248 238 234 235 239 242 245 246 218 211 224 214 206 229 241 254 273 277 270 269 273 281 280 251 260 264 218 143 138 115 90 356 344 17 2 344 344 353 359 20 27 21 19 18 18 33 44 43 51 61 59 55
321 315 309 303 298 296 296 297 299 300 301 299 298 298 295 290 282 271 257 245 234 245 285 266 283 304 299 290 292 297 296 290 284 273 256 244 239 237 235 233 234 237 237 234 233 227 224 233 242 243 245 268 289 275 255 265 282 260 226 257 264 202 160 141 117 137 211 284 338 339 336 344 328 339 25 39 29 23 23 16 14 27 41 52 64 67 60
320 313 308 303 298 294 291 291 294 298 299 301 304 305 302 293 277 261 256 244 232 230 285 286 281 287 286 293 298 297 294 289 277 266 258 245 234 231 229 228 229 228 222 225 229 230 235 233 232 247 234 165 276 285 279 262 264 237 183 206 242 239 185 131 116 204 259 312 337 311 258 302 329 353 32 42 33 26 33 27 3 354 18 53 66 68 67
320 312 308 304 298 294 289 286 287 289 293 300 306 307 306 300 263 228 227 219 210 210 263 292 288 287 284 288 286 284 292 294 276 257 256 247 232 231 228 220 219 219 219 222 217 215 229 234 231 251 228 142 227 290 295 285 279 268 181 179 216 271 246 137 155 222 242 291 299 269 210 205 241 47 51 46 34 20 38 68 45 357 358 37 63 64 58
322 314 310 304 297 294 290 283 281 281 281 283 284 272 287 304 195 176 165 164 174 211 287 269 277 291 283 263 257 274 293 300 289 265 250 238 240 240 229 218 208 204 210 215 213 210 216 197 217 258 230 126 158 278 292 304 290 279 279 307 59 344 306 300 255 233 233 255 258 226 161 174 243 75 68 60 56 43 25 53 53 35 20 31 51 57 46
327 321 317 311 302 296 289 281 276 270 262 255 246 243 254 259 237 196 186 196 232 290 298 263 277 293 284 265 282 300 308 310 309 301 276 270 297 263 236 222 204 194 192 182 175 224 202 170 215 277 249 147 170 247 265 257 254 262 295 331 350 307 289 304 313 293 273 248 220 184 148 124 312 108 102 90 81 74 62 50 43 30 17 24 43 50 41
332 329 325 320 314 305 294 285 274 263 260 260 260 262 267 268 262 246 240 248 260 250 202 239 277 270 270 300 304 315 336 349 335 330 335 324 318 302 272 242 206 182 152 136 168 205 155 161 234 300 256 176 199 263 258 242 248 270 317 338 332 306 282 301 347 345 316 287 199 145 125 111 109 107 96 82 68 57 57 61 56 41 21 26 39 42 34
334 331 324 319 317 309 300 294 279 264 262 259 260 267 271 267 261 255 246 241 239 212 209 235 274 262 270 305 309 325 16 21 285 300 336 296 261 236 260 278 222 164 128 277 158 135 150 181 237 315 283 216 213 253 256 253 268 305 343 350 342 323 297 339 16 6 339 347 102 105 98 84 78 84 83 77 62 49 48 48 50 61 61 46 34 27 22
335 328 317 311 308 302 297 291 271 254 247 239 249 268 274 252 240 239 221 207 195 206 235 223 232 267 286 298 281 293 349 321 260 229 216 264 272 231 223 9 27 256 265 335 73 147 190 171 144 283 272 245 220 240 254 261 282 338 5 3 351 344 352 18 16 3 360 65 103 104 97 90 85 86 89 89 78 67 62 49 35 57 77 64 34 19 23
336 327 319 317 312 302 296 278 234 218 226 243 259 276 274 241 231 224 212 210 215 230 242 227 227 239 269 291 287 317 1 323 268 255 233 264 321 330 35 67 59 271 264 37 164 212 192 137 151 249 290 274 252 258 277 332 33 42 39 14 353 356 13 13 356 5 45 71 79 80 81 86 90 88 90 88 79 75 79 70 48 52 68 64 29 8 7
337 328 326 328 324 311 292 225 206 234 270 273 273 276 261 238 230 220 214 218 219 216 217 268 251 231 244 272 270 322 356 319 289 326 287 254 331 347 15 65 84 265 335 32 239 229 160 139 192 270 282 267 269 350 35 45 40 37 37 11 351 1 15 4 359 42 74 77 72 71 78 82 74 61 69 64 50 46 74 91 90 82 80 68 18 348 341
343 337 333 336 341 340 238 234 293 313 305 284 274 273 245 219 224 221 209 207 208 200 188 224 243 232 231 250 251 278 330 322 8 355 291 271 55 354 7 48 89 342 2 344 288 281 314 199 222 275 270 274 5 16 14 16 19 20 24 15 4 19 32 24 22 49 76 78 70 68 84 93 82 64 59 62 56 46 37 34 42 75 91 96 292 301 312
354 351 341 341 339 275 287 300 312 318 311 279 257 260 222 193 229 242 211 200 224 213 182 206 232 218 208 235 256 261 230 243 304 297 259 287 34 28 137 96 110 68 4 300 315 12 348 306 314 309 307 350 13 356 344 354 13 10 1 356 5 29 45 42 32 38 65 84 82 67 92 104 98 85 75 80 83 78 62 37 18 16 20 334 294 292 297
355 355 348 318 269 286 304 314 317 316 305 250 206 218 231 214 209 217 211 221 250 238 200 209 229 210 201 221 254 255 201 201 249 268 235 245 351 107 112 85 98 122 197 260 284 338 325 5 28 351 345 1 351 334 340 356 1 357 354 355 14 34 45 49 40 34 58 100 120 144 154 129 113 101 90 88 91 91 88 68 36 31 37 33 16 347 340
342 338 299 284 288 297 309 318 319 307 267 239 236 240 252 251 224 213 242 263 262 246 202 200 243 245 206 201 220 238 212 198 223 264 245 254 282 99 94 95 128 166 220 247 292 311 330 38 34 348 336 342 324 323 342 351 351 6 17 17 20 24 24 32 38 37 55 92 111 126 130 101 90 82 78 79 82 85 85 73 57 53 54 49 38 33 38
316 303 292 291 296 302 312 322 320 297 271 306 306 285 261 258 257 250 240 240 262 268 202 186 221 252 215 179 195 219 202 183 199 213 166 201 218 112 99 100 70 67 170 163 94 352 340 52 42 4 356 354 337 341 2 11 12 24 32 33 31 23 18 31 38 35 48 74 86 85 74 73 74 74 73 75 74 70 69 68 65 60 59 58 53 48 48
320 307 297 297 303 313 330 330 310 327 39 356 335 329 315 307 309 293 268 253 256 265 242 213 233 257 224 163 188 216 188 165 185 181 135 163 96 84 87 50 50 76 182 208 66 40 43 63 59 30 3 352 348 360 16 20 25 33 36 37 37 25 16 24 36 35 42 57 65 65 60 57 60 66 70 71 70 67 63 62 63 65 65 63 58 51 50
330 325 335 348 324 320 334 318 312 2 22 7 338 321 320 322 322 315 309 311 300 278 276 284 292 297 296 188 181 198 181 172 181 153 131 149 135 108 103 68 53 112 166 54 40 31 32 55 62 55 26 8 15 26 24 17 27 41 41 35 32 18 0 5 30 53 60 62 63 61 56 49 48 57 62 59 54 54 56 56 58 62 65 63 56 48 49
342 350 19 4 328 336 28 7 338 353 355 331 267 275 307 313 312 306 294 267 261 274 284 291 298 309 316 305 178 177 186 173 153 129 139 145 106 72 77 136 195 108 69 52 40 27 26 32 33 34 36 33 32 36 36 27 27 41 54 54 48 34 23 30 46 61 73 81 82 77 72 66 56 59 62 57 51 49 53 56 57 61 65 65 58 51 51
332 344 48 23 325 321 22 8 349 352 337 301 291 299 303 304 303 295 276 254 263 283 291 294 299 311 319 318 297 202 250 144 110 70 72 85 63 38 337 266 3 34 42 41 38 46 53 43 30 30 39 37 27 22 27 28 20 26 50 60 52 32 42 73 81 71 64 68 68 65 67 68 56 54 62 63 57 53 54 57 60 63 66 69 71 69 66
333 329 70 52 326 321 2 358 297 273 272 276 283 288 286 282 283 283 274 262 270 283 287 284 280 283 301 316 344 359 350 27 62 38 29 66 74 27 324 23 38 38 36 34 36 45 51 50 45 38 32 31 31 28 25 18 357 335 359 61 74 79 85 82 71 55 49 50 49 46 46 47 43 44 48 50 46 45 47 51 56 61 65 67 73 78 76
330 337 76 78 304 302 310 302 292 290 284 275 274 279 280 283 307 319 316 295 283 294 304 305 312 341 337 328 357 7 355 9 40 36 14 56 77 38 26 34 30 16 19 36 42 45 45 49 50 39 19 18 30 37 35 41 52 48 43 59 62 61 56 51 48 45 43 42 42 41 39 38 38 41 44 42 37 36 39 43 48 54 57 60 62 63 62
224 314 117 143 233 257 263 278 330 353 345 336 336 338 341 347 346 341 338 332 326 325 314 286 325 13 1 350 18 26 14 11 22 15 4 24 37 31 25 31 26 21 31 39 41 42 42 42 45 41 32 26 25 18 12 26 49 59 59 55 52 47 41 39 42 44 43 44 45 45 44 44 44 43 43 43 40 39 41 44 46 46 48 55 62 63 61
350 55 72 7 10 334 297 309 4 9 358 356 2 360 357 356 353 348 345 340 334 341 353 3 23 29 12 1 24 32 19 12 15 13 16 27 29 20 27 38 34 32 44 51 48 43 36 30 34 37 32 31 35 31 21 23 40 49 49 46 47 48 48 48 49 49 46 47 49 49 47 46 46 46 46 47 47 45 43 43 45 48 51 57 65 68 64
342 8 341 356 23 16 352 356 16 13 358 356 357 351 350 359 359 347 336 334 351 20 24 10 357 15 24 24 32 33 11 357 7 18 25 29 24 19 40 45 35 28 40 50 50 45 34 23 28 33 29 29 34 27 8 13 43 54 50 40 38 42 46 51 54 54 49 45 45 45 44 41 42 46 47 45 43 42 39 38 44 53 58 59 59 59 58
3 358 337 337 4 20 15 12 11 359 352 357 356 349 357 10 359 335 329 350 27 37 20 353 356 39 36 28 28 26 11 10 26 32 32 28 12 18 45 47 32 23 27 35 35 31 23 16 23 33 40 44 36 7 348 18 57 68 65 55 48 43 42 45 50 51 49 45 42 41 41 41 41 42 42 39 37 35 26 24 37 51 61 62 61 59 59